Time,TemperatureF,DewpointF,PressureIn,WindDirection,WindDirectionDegrees,WindSpeedMPH,WindSpeedGustMPH,Humidity,HourlyPrecipIn,Conditions,Clouds,dailyrainin,SolarRadiationWatts/m^2,SoftwareType,DateUTC
2013-03-17 00:04:00,51.3,47.3,30.12,SSW,209,3.0,3.0,86,0.00,,,0.00,0,Wunderground v.1.15,2013-03-17 07:04:00,
2013-03-17 00:09:00,51.5,47.5,30.11,SSW,210,3.0,3.0,86,0.00,,,0.00,0,Wunderground v.1.15,2013-03-17 07:09:00,
2013-03-17 00:19:00,52.1,47.4,30.12,SSW,206,3.0,3.0,84,0.00,,,0.00,0,Wunderground v.1.15,2013-03-17 07:19:00,
2013-03-17 00:25:00,52.4,47.4,30.11,SSW,205,2.0,3.0,83,0.00,,,0.00,0,Wunderground v.1.15,2013-03-17 07:25:00,
2013-03-17 00:30:00,52.3,47.0,30.11,South,179,3.0,3.0,82,0.00,,,0.00,0,Wunderground v.1.15,2013-03-17 07:30:00,
2013-03-17 00:39:00,51.8,46.5,30.11,SSW,200,4.0,4.0,82,0.00,,,0.00,0,Wunderground v.1.15,2013-03-17 07:39:00,
2013-03-17 00:49:00,51.6,46.3,30.11,South,171,4.0,4.0,82,0.00,,,0.00,0,Wunderground v.1.15,2013-03-17 07:49:00,
2013-03-17 00:55:00,51.4,46.4,30.11,South,181,4.0,4.0,83,0.00,,,0.00,0,Wunderground v.1.15,2013-03-17 07:55:00,
2013-03-17 01:04:00,51.2,46.5,30.11,South,191,4.0,5.0,84,0.00,,,0.00,0,Wunderground v.1.15,2013-03-17 08:04:00,
2013-03-17 01:09:00,51.1,46.4,30.11,SSW,199,3.0,3.0,84,0.00,,,0.00,0,Wunderground v.1.15,2013-03-17 08:09:00,
2013-03-17 01:14:00,51.0,46.0,30.12,South,180,2.0,3.0,83,0.00,,,0.00,0,Wunderground v.1.15,2013-03-17 08:14:00,
2013-03-17 01:19:00,50.8,45.5,30.12,SSW,196,5.0,5.0,82,0.00,,,0.00,0,Wunderground v.1.15,2013-03-17 08:19:00,
2013-03-17 01:29:00,50.6,45.0,30.12,SSW,193,3.0,3.0,81,0.00,,,0.00,0,Wunderground v.1.15,2013-03-17 08:29:00,
2013-03-17 01:39:00,50.6,46.3,30.12,SSW,197,2.0,2.0,85,0.00,,,0.00,0,Wunderground v.1.15,2013-03-17 08:39:00,
2013-03-17 01:44:00,50.6,45.9,30.12,South,191,2.0,2.0,84,0.00,,,0.00,0,Wunderground v.1.15,2013-03-17 08:44:00,
2013-03-17 01:55:00,50.4,46.4,30.12,South,182,0.0,4.0,86,0.00,,,0.00,0,Wunderground v.1.15,2013-03-17 08:55:00,
2013-03-17 02:00:00,50.3,46.3,30.12,South,191,4.0,4.0,86,0.00,,,0.00,0,Wunderground v.1.15,2013-03-17 09:00:00,
2013-03-17 02:09:00,49.8,46.7,30.12,SSW,194,2.0,2.0,89,0.00,,,0.00,0,Wunderground v.1.15,2013-03-17 09:09:00,
2013-03-17 02:19:00,49.4,45.7,30.12,South,176,2.0,2.0,87,0.00,,,0.00,0,Wunderground v.1.15,2013-03-17 09:19:00,
2013-03-17 02:29:00,49.0,45.9,30.12,SSW,196,1.0,1.0,89,0.00,,,0.00,0,Wunderground v.1.15,2013-03-17 09:29:00,
2013-03-17 02:35:00,48.8,46.0,30.12,SSW,196,2.0,2.0,90,0.00,,,0.00,0,Wunderground v.1.15,2013-03-17 09:35:00,
2013-03-17 02:40:00,48.7,46.2,30.12,South,175,2.0,2.0,91,0.00,,,0.00,0,Wunderground v.1.15,2013-03-17 09:40:00,
2013-03-17 02:49:00,48.6,46.1,30.12,South,189,4.0,4.0,91,0.00,,,0.00,0,Wunderground v.1.15,2013-03-17 09:49:00,
2013-03-17 02:55:00,48.6,46.1,30.12,South,190,1.0,4.0,91,0.00,,,0.00,0,Wunderground v.1.15,2013-03-17 09:55:00,
2013-03-17 03:00:00,48.6,46.1,30.12,South,190,3.0,3.0,91,0.00,,,0.00,0,Wunderground v.1.15,2013-03-17 10:00:00,
2013-03-17 03:09:00,48.4,45.9,30.12,South,190,1.0,1.0,91,0.00,,,0.00,0,Wunderground v.1.15,2013-03-17 10:09:00,
2013-03-17 03:19:00,48.2,46.0,30.12,South,183,1.0,1.0,92,0.00,,,0.00,0,Wunderground v.1.15,2013-03-17 10:19:00,
2013-03-17 03:24:00,48.2,46.0,30.12,South,189,1.0,1.0,92,0.00,,,0.00,0,Wunderground v.1.15,2013-03-17 10:24:00,
2013-03-17 03:29:00,48.1,46.2,30.12,South,189,0.0,0.0,93,0.00,,,0.00,0,Wunderground v.1.15,2013-03-17 10:29:00,
2013-03-17 03:39:00,48.1,46.5,30.11,SSW,210,3.0,3.0,94,0.00,,,0.00,0,Wunderground v.1.15,2013-03-17 10:39:00,
2013-03-17 03:45:00,48.3,46.4,30.11,SSW,203,2.0,3.0,93,0.00,,,0.00,0,Wunderground v.1.15,2013-03-17 10:45:00,
2013-03-17 03:50:00,48.3,46.4,30.11,South,174,1.0,1.0,93,0.00,,,0.00,0,Wunderground v.1.15,2013-03-17 10:50:00,
2013-03-17 03:59:00,48.3,46.4,30.11,South,187,2.0,2.0,93,0.00,,,0.00,0,Wunderground v.1.15,2013-03-17 10:59:00,
2013-03-17 04:05:00,48.2,46.3,30.11,SSW,199,1.0,2.0,93,0.00,,,0.00,0,Wunderground v.1.15,2013-03-17 11:05:00,
2013-03-17 04:10:00,47.9,46.3,30.11,SSW,198,1.0,1.0,94,0.00,,,0.00,0,Wunderground v.1.15,2013-03-17 11:10:00,
2013-03-17 04:19:00,47.4,46.0,30.11,South,181,2.0,2.0,95,0.00,,,0.00,0,Wunderground v.1.15,2013-03-17 11:19:00,
2013-03-17 04:29:00,46.9,45.8,30.10,SSW,194,2.0,2.0,96,0.00,,,0.00,0,Wunderground v.1.15,2013-03-17 11:29:00,
2013-03-17 04:34:00,46.9,46.4,30.10,South,181,3.0,3.0,98,0.00,,,0.00,0,Wunderground v.1.15,2013-03-17 11:34:00,
2013-03-17 04:39:00,47.0,46.5,30.10,South,169,1.0,1.0,98,0.00,,,0.00,0,Wunderground v.1.15,2013-03-17 11:39:00,
2013-03-17 04:49:00,46.8,46.5,30.10,South,176,3.0,3.0,99,0.00,,,0.00,0,Wunderground v.1.15,2013-03-17 11:49:00,
2013-03-17 04:55:00,46.7,46.4,30.10,South,179,1.0,3.0,99,0.00,,,0.00,0,Wunderground v.1.15,2013-03-17 11:55:00,
2013-03-17 05:00:00,46.6,46.3,30.10,SSW,196,3.0,3.0,99,0.00,,,0.00,0,Wunderground v.1.15,2013-03-17 12:00:00,
2013-03-17 05:09:00,46.7,46.4,30.10,South,177,3.0,3.0,99,0.00,,,0.00,0,Wunderground v.1.15,2013-03-17 12:09:00,
2013-03-17 05:19:00,46.7,46.4,30.10,South,191,2.0,2.0,99,0.00,,,0.00,0,Wunderground v.1.15,2013-03-17 12:19:00,
2013-03-17 05:24:00,46.8,46.5,30.10,SSW,197,2.0,2.0,99,0.00,,,0.00,0,Wunderground v.1.15,2013-03-17 12:24:00,
2013-03-17 05:35:00,46.7,45.9,30.10,South,188,3.0,3.0,97,0.00,,,0.00,0,Wunderground v.1.15,2013-03-17 12:35:00,
2013-03-17 05:40:00,46.4,45.6,30.10,South,188,1.0,1.0,97,0.00,,,0.00,0,Wunderground v.1.15,2013-03-17 12:40:00,
2013-03-17 05:49:00,45.9,45.4,30.10,South,179,2.0,2.0,98,0.00,,,0.00,0,Wunderground v.1.15,2013-03-17 12:49:00,
2013-03-17 05:59:00,45.9,45.4,30.11,South,175,1.0,1.0,98,0.00,,,0.00,0,Wunderground v.1.15,2013-03-17 12:59:00,
2013-03-17 06:05:00,45.8,44.7,30.10,South,175,0.0,1.0,96,0.00,,,0.00,0,Wunderground v.1.15,2013-03-17 13:05:00,
2013-03-17 06:10:00,45.7,44.6,30.10,South,175,2.0,2.0,96,0.00,,,0.00,0,Wunderground v.1.15,2013-03-17 13:10:00,
2013-03-17 06:19:00,45.6,44.5,30.10,South,175,1.0,1.0,96,0.00,,,0.00,0,Wunderground v.1.15,2013-03-17 13:19:00,
2013-03-17 06:24:00,45.4,44.1,30.10,South,175,2.0,2.0,95,0.00,,,0.00,0,Wunderground v.1.15,2013-03-17 13:24:00,
2013-03-17 06:29:00,45.1,43.8,30.10,South,180,3.0,3.0,95,0.00,,,0.00,0,Wunderground v.1.15,2013-03-17 13:29:00,
2013-03-17 06:39:00,44.6,43.3,30.11,South,175,3.0,3.0,95,0.00,,,0.00,0,Wunderground v.1.15,2013-03-17 13:39:00,
2013-03-17 06:45:00,44.5,42.9,30.11,South,174,1.0,3.0,94,0.00,,,0.00,0,Wunderground v.1.15,2013-03-17 13:45:00,
2013-03-17 06:50:00,44.5,42.6,30.11,South,174,0.0,0.0,93,0.00,,,0.00,0,Wunderground v.1.15,2013-03-17 13:50:00,
2013-03-17 06:59:00,44.4,42.8,30.12,South,174,0.0,0.0,94,0.00,,,0.00,0,Wunderground v.1.15,2013-03-17 13:59:00,
2013-03-17 07:09:00,43.9,42.3,30.12,South,174,0.0,0.0,94,0.00,,,0.00,0,Wunderground v.1.15,2013-03-17 14:09:00,
2013-03-17 07:14:00,43.8,42.2,30.12,South,174,0.0,0.0,94,0.00,,,0.00,0,Wunderground v.1.15,2013-03-17 14:14:00,
2013-03-17 07:19:00,43.7,42.1,30.13,South,174,0.0,0.0,94,0.00,,,0.00,0,Wunderground v.1.15,2013-03-17 14:19:00,
2013-03-17 07:29:00,43.3,42.2,30.14,South,174,0.0,0.0,96,0.00,,,0.00,0,Wunderground v.1.15,2013-03-17 14:29:00,
2013-03-17 07:39:00,43.2,42.4,30.14,South,174,0.0,0.0,97,0.00,,,0.00,0,Wunderground v.1.15,2013-03-17 14:39:00,
2013-03-17 07:44:00,43.2,42.4,30.14,South,174,0.0,0.0,97,0.00,,,0.00,0,Wunderground v.1.15,2013-03-17 14:44:00,
2013-03-17 07:49:00,43.2,42.4,30.14,South,174,0.0,0.0,97,0.00,,,0.00,0,Wunderground v.1.15,2013-03-17 14:49:00,
2013-03-17 07:59:00,44.0,43.7,30.14,South,174,1.0,1.0,99,0.00,,,0.00,0,Wunderground v.1.15,2013-03-17 14:59:00,
2013-03-17 08:05:00,44.5,44.2,30.14,South,174,1.0,1.0,99,0.00,,,0.00,0,Wunderground v.1.15,2013-03-17 15:05:00,
2013-03-17 08:14:00,45.1,44.8,30.14,South,174,1.0,1.0,99,0.00,,,0.00,0,Wunderground v.1.15,2013-03-17 15:14:00,
2013-03-17 08:19:00,45.3,45.0,30.15,South,177,2.0,2.0,99,0.00,,,0.00,0,Wunderground v.1.15,2013-03-17 15:19:00,
2013-03-17 08:24:00,45.6,45.3,30.14,South,177,1.0,2.0,99,0.00,,,0.00,0,Wunderground v.1.15,2013-03-17 15:24:00,
2013-03-17 08:29:00,46.0,45.7,30.15,South,189,3.0,3.0,99,0.00,,,0.00,0,Wunderground v.1.15,2013-03-17 15:29:00,
2013-03-17 08:39:00,46.7,46.4,30.15,SSW,199,0.0,0.0,99,0.00,,,0.00,0,Wunderground v.1.15,2013-03-17 15:39:00,
2013-03-17 08:49:00,48.1,47.8,30.14,SSW,199,0.0,0.0,99,0.00,,,0.00,0,Wunderground v.1.15,2013-03-17 15:49:00,
2013-03-17 08:55:00,48.7,48.4,30.14,SSW,199,1.0,1.0,99,0.00,,,0.00,0,Wunderground v.1.15,2013-03-17 15:55:00,
2013-03-17 09:04:00,49.6,49.1,30.14,SSW,207,1.0,1.0,98,0.00,,,0.00,0,Wunderground v.1.15,2013-03-17 16:04:00,
2013-03-17 09:09:00,50.1,49.6,30.14,SSW,207,0.0,0.0,98,0.00,,,0.00,0,Wunderground v.1.15,2013-03-17 16:09:00,
2013-03-17 09:15:00,50.8,50.3,30.14,SSW,207,0.0,0.0,98,0.00,,,0.00,0,Wunderground v.1.15,2013-03-17 16:15:00,
2013-03-17 09:20:00,51.2,50.4,30.14,South,182,0.0,0.0,97,0.00,,,0.00,0,Wunderground v.1.15,2013-03-17 16:20:00,
2013-03-17 09:29:00,51.5,50.4,30.14,WNW,297,1.0,1.0,96,0.00,,,0.00,0,Wunderground v.1.15,2013-03-17 16:29:00,
2013-03-17 09:39:00,51.6,50.5,30.15,NW,309,1.0,1.0,96,0.00,,,0.00,0,Wunderground v.1.15,2013-03-17 16:39:00,
2013-03-17 09:45:00,51.6,50.2,30.14,WNW,294,0.0,1.0,95,0.00,,,0.00,0,Wunderground v.1.15,2013-03-17 16:45:00,
2013-03-17 09:50:00,51.6,49.9,30.14,NW,307,2.0,2.0,94,0.00,,,0.00,0,Wunderground v.1.15,2013-03-17 16:50:00,
2013-03-17 09:59:00,52.0,50.0,30.14,North,349,3.0,3.0,93,0.00,,,0.00,0,Wunderground v.1.15,2013-03-17 16:59:00,
2013-03-17 10:05:00,52.4,50.1,30.14,NNW,332,4.0,4.0,92,0.00,,,0.00,0,Wunderground v.1.15,2013-03-17 17:05:00,
2013-03-17 10:10:00,52.7,49.8,30.14,WNW,297,2.0,2.0,90,0.00,,,0.00,0,Wunderground v.1.15,2013-03-17 17:10:00,
2013-03-17 10:19:00,53.3,49.5,30.15,WNW,303,3.0,3.0,87,0.00,,,0.00,0,Wunderground v.1.15,2013-03-17 17:19:00,
2013-03-17 10:29:00,53.9,50.1,30.15,NW,311,1.0,1.0,87,0.00,,,0.00,0,Wunderground v.1.15,2013-03-17 17:29:00,
2013-03-17 10:34:00,54.1,49.4,30.15,NNW,334,3.0,3.0,84,0.00,,,0.00,0,Wunderground v.1.15,2013-03-17 17:34:00,
2013-03-17 10:39:00,54.3,49.6,30.15,NNW,344,3.0,3.0,84,0.00,,,0.00,0,Wunderground v.1.15,2013-03-17 17:39:00,
2013-03-17 10:49:00,55.0,49.6,30.15,NW,306,4.0,4.0,82,0.00,,,0.00,0,Wunderground v.1.15,2013-03-17 17:49:00,
2013-03-17 10:55:00,55.0,49.6,30.15,NW,312,1.0,4.0,82,0.00,,,0.00,0,Wunderground v.1.15,2013-03-17 17:55:00,
2013-03-17 11:00:00,55.4,49.7,30.15,NW,317,2.0,2.0,81,0.00,,,0.00,0,Wunderground v.1.15,2013-03-17 18:00:00,
2013-03-17 11:09:00,56.7,50.6,30.15,NW,304,4.0,4.0,80,0.00,,,0.00,0,Wunderground v.1.15,2013-03-17 18:09:00,
2013-03-17 11:15:00,56.9,50.5,30.15,NW,312,3.0,4.0,79,0.00,,,0.00,0,Wunderground v.1.15,2013-03-17 18:15:00,
2013-03-17 11:20:00,57.4,50.6,30.15,NW,318,2.0,2.0,78,0.00,,,0.00,0,Wunderground v.1.15,2013-03-17 18:20:00,
2013-03-17 11:29:00,57.6,50.8,30.14,SSW,193,3.0,3.0,78,0.00,,,0.00,0,Wunderground v.1.15,2013-03-17 18:29:00,
2013-03-17 11:39:00,59.8,52.9,30.14,WSW,252,0.0,0.0,78,0.00,,,0.00,0,Wunderground v.1.15,2013-03-17 18:39:00,
2013-03-17 11:44:00,60.4,51.7,30.14,SSW,204,2.0,2.0,73,0.00,,,0.00,0,Wunderground v.1.15,2013-03-17 18:44:00,
2013-03-17 11:49:00,60.1,50.7,30.14,SSE,157,2.0,2.0,71,0.00,,,0.00,0,Wunderground v.1.15,2013-03-17 18:49:00,
2013-03-17 11:59:00,60.3,51.6,30.13,SW,232,1.0,1.0,73,0.00,,,0.00,0,Wunderground v.1.15,2013-03-17 18:59:00,
2013-03-17 12:05:00,61.2,52.1,30.13,South,170,6.0,6.0,72,0.00,,,0.00,0,Wunderground v.1.15,2013-03-17 19:05:00,
2013-03-17 12:10:00,60.6,51.9,30.13,South,183,3.0,3.0,73,0.00,,,0.00,0,Wunderground v.1.15,2013-03-17 19:10:00,
2013-03-17 12:19:00,60.9,52.9,30.13,WNW,298,1.0,1.0,75,0.00,,,0.00,0,Wunderground v.1.15,2013-03-17 19:19:00,
2013-03-17 12:29:00,62.6,51.9,30.12,SSE,148,1.0,1.0,68,0.00,,,0.00,0,Wunderground v.1.15,2013-03-17 19:29:00,
2013-03-17 12:34:00,63.2,52.5,30.12,West,266,1.0,1.0,68,0.00,,,0.00,0,Wunderground v.1.15,2013-03-17 19:34:00,
2013-03-17 12:44:00,62.1,51.8,30.12,ENE,76,2.0,3.0,69,0.00,,,0.00,0,Wunderground v.1.15,2013-03-17 19:44:00,
2013-03-17 12:49:00,62.3,51.6,30.12,East,95,2.0,2.0,68,0.00,,,0.00,0,Wunderground v.1.15,2013-03-17 19:49:00,
2013-03-17 12:55:00,62.9,51.4,30.12,North,1,6.0,6.0,66,0.00,,,0.00,0,Wunderground v.1.15,2013-03-17 19:55:00,
2013-03-17 13:00:00,62.6,51.5,30.12,ENE,63,0.0,0.0,67,0.00,,,0.00,0,Wunderground v.1.15,2013-03-17 20:00:00,
2013-03-17 13:09:00,62.8,51.3,30.11,WNW,292,0.0,0.0,66,0.00,,,0.00,0,Wunderground v.1.15,2013-03-17 20:09:00,
2013-03-17 13:19:00,64.4,51.5,30.11,North,359,2.0,2.0,63,0.00,,,0.00,0,Wunderground v.1.15,2013-03-17 20:19:00,
2013-03-17 13:24:00,64.4,51.1,30.11,NNE,33,1.0,2.0,62,0.00,,,0.00,0,Wunderground v.1.15,2013-03-17 20:24:00,
2013-03-17 13:30:00,64.5,51.6,30.11,NNW,343,2.0,2.0,63,0.00,,,0.00,0,Wunderground v.1.15,2013-03-17 20:30:00,
2013-03-17 13:39:00,65.0,51.2,30.10,NW,314,0.0,0.0,61,0.00,,,0.00,0,Wunderground v.1.15,2013-03-17 20:39:00,
2013-03-17 13:45:00,64.9,49.8,30.10,WNW,303,1.0,1.0,58,0.00,,,0.00,0,Wunderground v.1.15,2013-03-17 20:45:00,
2013-03-17 13:50:00,65.9,49.8,30.10,East,99,4.0,4.0,56,0.00,,,0.00,0,Wunderground v.1.15,2013-03-17 20:50:00,
2013-03-17 13:59:00,66.6,49.9,30.10,ENE,68,1.0,1.0,55,0.00,,,0.00,0,Wunderground v.1.15,2013-03-17 20:59:00,
2013-03-17 14:09:00,67.4,52.1,30.09,NW,306,0.0,0.0,58,0.00,,,0.00,0,Wunderground v.1.15,2013-03-17 21:09:00,
2013-03-17 14:15:00,67.7,51.9,30.09,South,176,3.0,3.0,57,0.00,,,0.00,0,Wunderground v.1.15,2013-03-17 21:15:00,
2013-03-17 14:20:00,67.5,51.2,30.08,South,185,3.0,3.0,56,0.00,,,0.00,0,Wunderground v.1.15,2013-03-17 21:20:00,
2013-03-17 14:29:00,67.9,51.6,30.08,NW,307,0.0,0.0,56,0.00,,,0.00,0,Wunderground v.1.15,2013-03-17 21:29:00,
2013-03-17 14:35:00,68.6,51.8,30.08,South,182,1.0,1.0,55,0.00,,,0.00,0,Wunderground v.1.15,2013-03-17 21:35:00,
2013-03-17 14:40:00,68.7,52.4,30.07,SSW,197,1.0,1.0,56,0.00,,,0.00,0,Wunderground v.1.15,2013-03-17 21:40:00,
2013-03-17 14:49:00,68.2,51.4,30.08,WNW,296,0.0,0.0,55,0.00,,,0.00,0,Wunderground v.1.15,2013-03-17 21:49:00,
2013-03-17 14:59:00,67.5,50.3,30.07,NW,314,2.0,2.0,54,0.00,,,0.00,0,Wunderground v.1.15,2013-03-17 21:59:00,
2013-03-17 15:05:00,67.4,50.2,30.07,North,3,3.0,3.0,54,0.00,,,0.00,0,Wunderground v.1.15,2013-03-17 22:05:00,
2013-03-17 15:10:00,67.1,49.9,30.07,NNW,335,2.0,2.0,54,0.00,,,0.00,0,Wunderground v.1.15,2013-03-17 22:10:00,
2013-03-17 15:19:00,67.4,50.2,30.06,NW,312,4.0,4.0,54,0.00,,,0.00,0,Wunderground v.1.15,2013-03-17 22:19:00,
2013-03-17 15:30:00,67.8,50.0,30.06,ENE,70,2.0,2.0,53,0.00,,,0.00,0,Wunderground v.1.15,2013-03-17 22:30:00,
2013-03-17 15:39:00,68.7,49.8,30.05,South,191,3.0,3.0,51,0.00,,,0.00,0,Wunderground v.1.15,2013-03-17 22:39:00,
2013-03-17 15:49:00,69.5,51.1,30.05,SSE,160,1.0,1.0,52,0.00,,,0.00,0,Wunderground v.1.15,2013-03-17 22:49:00,
2013-03-17 15:54:00,69.6,50.1,30.05,South,169,0.0,1.0,50,0.00,,,0.00,0,Wunderground v.1.15,2013-03-17 22:54:00,
2013-03-17 15:59:00,69.0,50.1,30.05,NNW,339,3.0,3.0,51,0.00,,,0.00,0,Wunderground v.1.15,2013-03-17 22:59:00,
2013-03-17 16:09:00,69.1,50.7,30.05,WNW,301,1.0,1.0,52,0.00,,,0.00,0,Wunderground v.1.15,2013-03-17 23:09:00,
2013-03-17 16:20:00,68.9,50.0,30.04,NW,322,2.0,2.0,51,0.00,,,0.00,0,Wunderground v.1.15,2013-03-17 23:20:00,
2013-03-17 16:29:00,69.1,50.2,30.05,SSW,199,0.0,0.0,51,0.00,,,0.00,0,Wunderground v.1.15,2013-03-17 23:29:00,
2013-03-17 16:39:00,68.7,49.8,30.05,SW,215,0.0,0.0,51,0.00,,,0.00,0,Wunderground v.1.15,2013-03-17 23:39:00,
2013-03-17 16:44:00,68.4,50.1,30.05,South,188,3.0,3.0,52,0.00,,,0.00,0,Wunderground v.1.15,2013-03-17 23:44:00,
2013-03-17 16:49:00,68.2,49.9,30.05,SSW,192,0.0,0.0,52,0.00,,,0.00,0,Wunderground v.1.15,2013-03-17 23:49:00,
2013-03-17 16:59:00,67.9,53.5,30.05,SW,216,2.0,2.0,60,0.00,,,0.00,0,Wunderground v.1.15,2013-03-17 23:59:00,
2013-03-17 17:05:00,67.3,53.4,30.05,SW,227,3.0,3.0,61,0.00,,,0.00,0,Wunderground v.1.15,2013-03-18 00:05:00,
2013-03-17 17:14:00,66.5,52.2,30.06,SSW,207,1.0,7.0,60,0.00,,,0.00,0,Wunderground v.1.15,2013-03-18 00:14:00,
2013-03-17 17:19:00,66.5,51.7,30.06,NW,323,4.0,4.0,59,0.00,,,0.00,0,Wunderground v.1.15,2013-03-18 00:19:00,
2013-03-17 17:25:00,66.0,50.8,30.06,NW,305,9.0,9.0,58,0.00,,,0.00,0,Wunderground v.1.15,2013-03-18 00:25:00,
2013-03-17 17:30:00,65.2,51.0,30.06,WNW,295,5.0,5.0,60,0.00,,,0.00,0,Wunderground v.1.15,2013-03-18 00:30:00,
2013-03-17 17:39:00,64.3,50.6,30.06,NW,324,6.0,6.0,61,0.00,,,0.00,0,Wunderground v.1.15,2013-03-18 00:39:00,
2013-03-17 17:45:00,64.0,50.7,30.06,NNW,331,2.0,6.0,62,0.00,,,0.00,0,Wunderground v.1.15,2013-03-18 00:45:00,
2013-03-17 17:50:00,63.8,50.5,30.06,NW,307,6.0,6.0,62,0.00,,,0.00,0,Wunderground v.1.15,2013-03-18 00:50:00,
2013-03-17 17:59:00,63.0,49.3,30.06,WNW,295,7.0,7.0,61,0.00,,,0.00,0,Wunderground v.1.15,2013-03-18 00:59:00,
2013-03-17 18:09:00,62.0,48.8,30.06,West,279,3.0,3.0,62,0.00,,,0.00,0,Wunderground v.1.15,2013-03-18 01:09:00,
2013-03-17 18:15:00,61.6,48.9,30.06,NW,305,0.0,3.0,63,0.00,,,0.00,0,Wunderground v.1.15,2013-03-18 01:15:00,
2013-03-17 18:20:00,61.4,49.1,30.06,NW,305,0.0,0.0,64,0.00,,,0.00,0,Wunderground v.1.15,2013-03-18 01:20:00,
2013-03-17 18:29:00,60.4,49.8,30.06,SSW,210,4.0,4.0,68,0.00,,,0.00,0,Wunderground v.1.15,2013-03-18 01:29:00,
2013-03-17 18:39:00,58.5,49.5,30.06,SSW,194,1.0,1.0,72,0.00,,,0.00,0,Wunderground v.1.15,2013-03-18 01:39:00,
2013-03-17 18:45:00,58.1,48.7,30.06,SSW,194,1.0,1.0,71,0.00,,,0.00,0,Wunderground v.1.15,2013-03-18 01:45:00,
2013-03-17 18:50:00,57.8,50.3,30.06,SSW,195,2.0,2.0,76,0.00,,,0.00,0,Wunderground v.1.15,2013-03-18 01:50:00,
2013-03-17 18:59:00,57.2,50.4,30.06,SSW,195,2.0,2.0,78,0.00,,,0.00,0,Wunderground v.1.15,2013-03-18 01:59:00,
2013-03-17 19:05:00,56.8,50.4,30.07,SSW,206,2.0,2.0,79,0.00,,,0.00,0,Wunderground v.1.15,2013-03-18 02:05:00,
2013-03-17 19:10:00,56.4,50.0,30.06,South,190,0.0,0.0,79,0.00,,,0.00,0,Wunderground v.1.15,2013-03-18 02:10:00,
2013-03-17 19:19:00,56.1,49.7,30.06,SSW,192,3.0,3.0,79,0.00,,,0.00,0,Wunderground v.1.15,2013-03-18 02:19:00,
2013-03-17 19:29:00,55.5,48.1,30.06,South,186,2.0,2.0,76,0.00,,,0.00,0,Wunderground v.1.15,2013-03-18 02:29:00,
2013-03-17 19:34:00,55.2,48.8,30.06,SSW,199,0.0,2.0,79,0.00,,,0.00,0,Wunderground v.1.15,2013-03-18 02:34:00,
2013-03-17 19:39:00,55.0,48.6,30.06,SSW,196,0.0,0.0,79,0.00,,,0.00,0,Wunderground v.1.15,2013-03-18 02:39:00,
2013-03-17 19:49:00,54.2,47.8,30.06,SSW,204,5.0,5.0,79,0.00,,,0.00,0,Wunderground v.1.15,2013-03-18 02:49:00,
2013-03-17 20:00:00,53.4,45.7,30.06,SSW,208,2.0,2.0,75,0.00,,,0.00,0,Wunderground v.1.15,2013-03-18 03:00:00,
2013-03-17 20:09:00,53.1,46.1,30.06,SSW,196,4.0,4.0,77,0.00,,,0.00,0,Wunderground v.1.15,2013-03-18 03:09:00,
2013-03-17 20:19:00,53.0,47.3,30.07,SSW,206,5.0,5.0,81,0.00,,,0.00,0,Wunderground v.1.15,2013-03-18 03:19:00,
2013-03-17 20:25:00,52.8,47.1,30.07,SSW,204,7.0,7.0,81,0.00,,,0.00,0,Wunderground v.1.15,2013-03-18 03:25:00,
2013-03-17 20:30:00,52.6,46.9,30.07,SSW,200,8.0,8.0,81,0.00,,,0.00,0,Wunderground v.1.15,2013-03-18 03:30:00,
2013-03-17 20:39:00,52.4,47.4,30.07,South,191,2.0,2.0,83,0.00,,,0.00,0,Wunderground v.1.15,2013-03-18 03:39:00,
2013-03-17 20:49:00,52.0,46.7,30.07,SSW,195,5.0,5.0,82,0.00,,,0.00,0,Wunderground v.1.15,2013-03-18 03:49:00,
2013-03-17 20:54:00,51.8,47.1,30.07,SSW,195,4.0,5.0,84,0.00,,,0.00,0,Wunderground v.1.15,2013-03-18 03:54:00,
2013-03-17 20:59:00,51.6,47.2,30.07,SW,218,2.0,2.0,85,0.00,,,0.00,0,Wunderground v.1.15,2013-03-18 03:59:00,
2013-03-17 21:04:00,51.4,47.0,30.07,SSW,194,4.0,4.0,85,0.00,,,0.00,0,Wunderground v.1.15,2013-03-18 04:04:00,
2013-03-17 21:09:00,51.1,46.1,30.07,SSW,202,3.0,3.0,83,0.00,,,0.00,0,Wunderground v.1.15,2013-03-18 04:09:00,
2013-03-17 21:15:00,50.9,46.2,30.07,South,191,0.0,3.0,84,0.00,,,0.00,0,Wunderground v.1.15,2013-03-18 04:15:00,
2013-03-17 21:20:00,50.8,46.5,30.07,SSW,198,3.0,3.0,85,0.00,,,0.00,0,Wunderground v.1.15,2013-03-18 04:20:00,
2013-03-17 21:24:00,50.6,45.9,30.08,SW,214,3.0,3.0,84,0.00,,,0.00,0,Wunderground v.1.15,2013-03-18 04:24:00,
2013-03-17 21:29:00,50.5,46.5,30.08,SW,218,1.0,1.0,86,0.00,,,0.00,0,Wunderground v.1.15,2013-03-18 04:29:00,
2013-03-17 21:34:00,50.5,46.5,30.08,SSW,196,5.0,5.0,86,0.00,,,0.00,0,Wunderground v.1.15,2013-03-18 04:34:00,
2013-03-17 21:39:00,50.4,47.0,30.08,South,171,4.0,4.0,88,0.00,,,0.00,0,Wunderground v.1.15,2013-03-18 04:39:00,
2013-03-17 21:44:00,50.4,47.0,30.08,South,188,3.0,4.0,88,0.00,,,0.00,0,Wunderground v.1.15,2013-03-18 04:44:00,
2013-03-17 21:49:00,50.3,46.9,30.09,South,188,1.0,1.0,88,0.00,,,0.00,0,Wunderground v.1.15,2013-03-18 04:49:00,
2013-03-17 21:59:00,50.3,46.6,30.09,South,188,0.0,0.0,87,0.00,,,0.00,0,Wunderground v.1.15,2013-03-18 04:59:00,
2013-03-17 22:05:00,50.3,46.6,30.09,SSW,199,1.0,1.0,87,0.00,,,0.00,0,Wunderground v.1.15,2013-03-18 05:05:00,
2013-03-17 22:10:00,50.3,46.6,30.09,SSW,200,1.0,1.0,87,0.00,,,0.00,0,Wunderground v.1.15,2013-03-18 05:10:00,
2013-03-17 22:19:00,50.0,46.3,30.09,South,180,4.0,4.0,87,0.00,,,0.00,0,Wunderground v.1.15,2013-03-18 05:19:00,
2013-03-17 22:29:00,49.8,46.4,30.10,SSW,204,4.0,4.0,88,0.00,,,0.00,0,Wunderground v.1.15,2013-03-18 05:29:00,
2013-03-17 22:34:00,49.8,46.4,30.09,South,177,2.0,4.0,88,0.00,,,0.00,0,Wunderground v.1.15,2013-03-18 05:34:00,
2013-03-17 22:44:00,49.8,46.7,30.10,South,182,0.0,3.0,89,0.00,,,0.00,0,Wunderground v.1.15,2013-03-18 05:44:00,
2013-03-17 22:49:00,49.5,46.4,30.10,South,182,1.0,1.0,89,0.00,,,0.00,0,Wunderground v.1.15,2013-03-18 05:49:00,
2013-03-17 22:55:00,49.2,46.1,30.10,SSW,200,2.0,2.0,89,0.00,,,0.00,0,Wunderground v.1.15,2013-03-18 05:55:00,
2013-03-17 23:00:00,49.0,46.2,30.10,South,188,3.0,3.0,90,0.00,,,0.00,0,Wunderground v.1.15,2013-03-18 06:00:00,
2013-03-17 23:09:00,48.8,46.6,30.10,South,187,0.0,0.0,92,0.00,,,0.00,0,Wunderground v.1.15,2013-03-18 06:09:00,
2013-03-17 23:19:00,48.7,47.1,30.10,SSW,195,1.0,1.0,94,0.00,,,0.00,0,Wunderground v.1.15,2013-03-18 06:19:00,
2013-03-17 23:25:00,48.6,47.0,30.10,SSW,195,0.0,1.0,94,0.00,,,0.00,0,Wunderground v.1.15,2013-03-18 06:25:00,
2013-03-17 23:34:00,48.3,46.7,30.09,SSW,195,0.0,0.0,94,0.00,,,0.00,0,Wunderground v.1.15,2013-03-18 06:34:00,
2013-03-17 23:39:00,48.1,46.5,30.09,SSW,195,0.0,0.0,94,0.00,,,0.00,0,Wunderground v.1.15,2013-03-18 06:39:00,
2013-03-17 23:45:00,47.9,46.3,30.09,SSW,195,0.0,0.0,94,0.00,,,0.00,0,Wunderground v.1.15,2013-03-18 06:45:00,
2013-03-17 23:50:00,47.7,46.1,30.09,SSW,195,0.0,0.0,94,0.00,,,0.00,0,Wunderground v.1.15,2013-03-18 06:50:00,
2013-03-17 23:59:00,47.5,45.9,30.09,SSW,195,0.0,0.0,94,0.00,,,0.00,0,Wunderground v.1.15,2013-03-18 06:59:00,